Αρχική σελίδα
METAR-TAF:

METAR-TAF

Αεροδρόμια :

Palo Alto Airport of Santa Clara County

Palo Alto, Καλιφόρνια, Ηνωμένες Πολιτείες Αμερικής

γεωγραφικό πλάτος: 37-28N, γεωγραφικό μήκος: 122-07W, υψόμετρο: 2 μ

Παρών καιρός

Η αναφορά έγινε 7 ώρες και 22 λεπτά πριν, στις 03:47 UTC
Άνεμος 7 kt από Β/BΔ
Θερμοκρασία 14°C
Υγρασία 82%
Πίεση 1014 hPa
Ορατότητα: 16.1 χλμ
Καθαρός ουρανός

METAR: KPAO 190347Z 33007KT 10SM SKC 14/11 A2993 RMK LAST

Χρόνος: 04:09 (11:09 UTC)


TAF: λείπει

Μετεωρολογικές αναφορές και προγνώσεις για περισσότερα από 4000 αεροδρόμια (δελτία METAR και TAF).

Οι διαθέσιμοι σταθμοί απεικονίζονται στο χάρτη με κίτρινες και κόκκινες κουκκίδες.

Μετακινήστε το ποντίκι πάνω από τις κουκκίδες για να δείτε το όνομα του σταθμού.

Στη συνέχεια, κάντε κλικ για να δείτε τις μετεωρολογικές αναφορές και τις προγνώσεις καιρού.

Για να αλλάξετε το χάρτη: κάντε κλικ στα πράσινα κουμπιά με τον μαύρο σταυρό για να ζουμάρετε, στο πράσινο κουμπί με την παύλα για να αφαιρέσετε το ζουμ ή στα πράσινα βέλη για να αντιπαραβάλλετε χάρτες.


METAR-TAF: